Location: Zagreb
(45.8000°N, 16.0000°E)
Time: 14:41:42
(UTC+02:00)

Transit 2A - Pass Details

Date: 13 August 2022
Orbit: 601 x 956 km, 66.7° (Epoch: 25 September)

Event Time Altitude Azimuth Distance (km) Brightness Sun altitude
Rises 11:11:13 0° 180° (S) 3,176 9.6 51.2°
Reaches altitude 10° 11:13:59 10° 169° (SSE) 2,194 9.1 51.6°
Maximum altitude 11:18:04 26° 113° (ESE) 1,310 8.4 52.1°
Drops below altitude 10° 11:21:55 10° 56° (NE) 2,049 8.4 52.5°
Sets 11:24:24 0° 44° (NE) 2,924 9.0 52.8°
